DECAYED

OBJECT C, 100239 (Decayed)

Orbit data source: Space-Track

You're viewing an uncataloged RSO

Recently launched and/or uncataloged RSOs may have evolving metadata. Metadata may include the following, but is not limited to: Owner, Manufacturer, Bus, Motor, and Mission.

OBJECT C, 100239 was a satellite owned by Changzheng H. (CN) in SSO that was launched on Wed, 05 Aug 2026 UTC launched from the Yellow Sea Launch Area, China (YSLA). Unknown objects in Earth's orbit typically refer to objects detected orbiting the Earth but have not yet been identified or cataloged. These objects could be anything from previously untracked satellites, spent rocket stages, debris from satellite collisions, or even natural meteoroids temporarily captured by Earth's gravity. This object's orbit decayed before it could be identified.

Loading next visibility...
Identifier
100239, 2026-178C
Orbit
Decayed
Country
Flag of CNCN / PRC
Related business
Manufacturer
Changzheng H.
Mission
Decayed spacecraft
Bus & Motor
Unknown
Mass
Unknown
Launch date (UTC)
2026-08-05 (2 months ago)
Launch vehicle
Unknown
Launch site
Yellow Sea Launch Area, China (YSLA)
Object type
Unknown
Shape & HBR
Unknown shape, 1.1 m
Radar Cross Section
RCS unknown

Expand to show TLE details & history
Last TLE update: 4 weeks ago

TLE from 4 weeks ago
0 OBJECT C
1 A0239U 26178C   26237.97683447  .00004715  00000-0  30309-3 0  9991
2 A0239  97.6581 313.3743 0014325 189.5270 170.5689 15.08829027  3150
Epoch: 2026-08-25T23:26Z
TLE epoch observation values (Epoch: 2026-08-25T23:26:38.498Z)
Latitude
0.00001°
Longitude
-12.52256°
Altitude
552.623 km
Speed
7.58 km/s
True Right ascension
20h 53m 29s
True Declination
0° 00' 00"
Sunlit
Object was in full shadow at epoch
Visualization orbit readout
Latitude
Unknown
Longitude
Unknown
Altitude
Unknown
Speed
Unknown
Apparent Right ascension
Unknown
Apparent Declination
Unknown
Sunlit
N/A
Visualization observer readout
Local Sidereal Time
19:52:47
Azimuth
Unknown
Elevation
Unknown
Doppler factor
Unknown
Orbital elements
Apogee altitude
546.674 km
Perigee altitude
526.863 km
Semi-major axis
6,914.906 km
Eccentricity
0.00143
Inclination
97.6581°
RAAN
313.3743°
Arg. of periapsis
189.527°
True anomaly
170.59575°
Mean anomaly
170.5689°
Eccentric anomaly
170.58233°
Mean motion
3.77454 °/min
Orbital period
95.38 mins
BSTAR
0.00030309
Loading maneuver chart data...
Computing Atmospheric mass density...
Loading historical data...
Loading historical data...
Loading historical data...
Loading historical data...
Loading historical data...
Loading historical data...
Loading historical data...
Other satellites on launch #178 in the year 2026 (2026-08-05 UTC)

Documentation

Showing up to 5 results
|